Regional Weather Roundup
Issued by NWS New Orleans/Baton Rouge, LA

Home | Current Version | Previous Version | Graphics & Text | Print | Product List | Glossary On
Versions: 1 2 3 4 5 6 7 8 9 10 11 12 13 14 15 16 17 18 19 20 21 22 23 24 25 26 27 28 29 30 31 32 33 34 35 36 37 38 39 40 41 42 43 44 45 46 47 48 49 50
443
ASUS44 KLIX 180711
RWRLIX
NEW ORLEANS REGIONAL WEATHER ROUNDUP
NATIONAL WEATHER SERVICE NEW ORLEANS LA
200 AM CDT SAT APR 18 2015

NOTE: "FAIR" INDICATES FEW OR NO CLOUDS BELOW 12,000 FEET WITH NO
      SIGNIFICANT WEATHER AND/OR OBSTRUCTIONS TO VISIBILITY.
      SKY/WX - SKY CONDITION AND SIGNIFICANT WEATHER.
      TMP - AIR TEMPERATURE.     DP    - DEWPOINT TEMPERATURE.
      RH  - RELATIVE HUMIDITY.   PRES  - PRESSURE.
      HI  - HEAT INDEX.          WCI   - WIND CHILL INDEX.

*  THESE STATIONS ARE NOT NWS OR FAA STATIONS AND ARE NOT UNDER
   NWS QUALITY CONTROL.

LAZ038-040-048-061>063-065>067-069-180800-
SOUTHEAST LOUISIANA

CITY           SKY/WX    TMP DP  RH WIND       PRES   REMARKS
N.O. AUDUBON     N/A     73  72  96 MISG        N/A
N.O. INTL ARPT LGT RAIN  74  70  87 CALM      29.91F
N.O. LAKEFRONT CLOUDY    77  71  82 CALM      29.92R
SLIDELL        CLOUDY    72  72 100 SW3       29.92R
BATON ROUGE    LGT RAIN  70  69  97 CALM      29.96R FOG
BOOTHVILLE     CLOUDY    72  68  87 CALM      29.93S
BELLE CHASSE   CLOUDY    71  68  90 CALM      29.91S
BOGALUSA*        N/A     69  66  88 CALM      29.93F
GALLIANO*      DRIZZLE   72  71  95 CALM      29.91F
NEW ROADS*     TSTM      71  70  97 CALM      29.96R
GONZALES*      RAIN      71  71 100 SW6       29.95R
HAMMOND*       CLOUDY    70  66  88 CALM      29.95S
HOUMA*         LGT RAIN  73  72  98 NW3       29.92S
PORT FOURCHON* CLOUDY    75  70  83 S5        29.94F

$$

MSZ070-080>082-180800-
SOUTHERN MISSISSIPPI

CITY           SKY/WX    TMP DP  RH WIND       PRES   REMARKS
MCCOMB         CLOUDY    68  66  93 CALM      29.94S
GULFPORT       CLOUDY    70  68  93 NE6       29.89F
BILOXI         CLOUDY    70  70 100 NE7       29.89F
PASCAGOULA     MOCLDY    69  68  96 NE3       29.92F

$$

COASTAL OBSERVATIONS
LAKE AND NEARSHORE STATIONS

STATION/POSITION TIME  TEMP    WIND        PRES    WAVE
                       AIR SEA DIR/SP/G            HT/PER
                 (UTC) (F)     (DEG/KT/KT) (MB)    (FT/S)
PASCAGOULA       0600   72      10/  4/  7 1013.1
WAVELAND YACHT   0600   72 74   40/  1/  2 1013.1
GRAND ISLE       0612   75 76  130/  4/  5 1013.0
SOUTHWEST PASS   0612   70 63  140/  8/  9 1013.4
NEW CANAL        0606   75     230/  3/  5 1013.7
SHELL BEACH      0600   74 76   60/  4/  4 1011.7

OFFSHORE STATIONS

STATION/POSITION TIME  TEMP    WIND        PRES    WAVE
                       AIR SEA DIR/SP/G            HT/PER
                 (UTC) (F)     (DEG/KT/KT) (MB)    (FT/S)
64 S DAUPHIN ISL 0650   74 74  160/  4/  6 1013.6    3/ 5

$$




USA.gov is the U.S. government's official web portal to all federal, state and local government web resources and services.